Regional Weather Roundup
Issued by NWS New Orleans/Baton Rouge, LA

Home | Current Version | Previous Version | Text Only | Print | Product List | Glossary On
Versions: 1 2 3 4 5 6 7 8 9 10 11 12 13 14 15 16 17 18 19 20 21 22 23 24 25 26 27 28 29 30 31 32 33 34 35 36 37 38 39 40 41 42 43 44 45 46 47 48 49 50
603
ASUS44 KLIX 250301
RWRLIX
NEW ORLEANS REGIONAL WEATHER ROUNDUP
NATIONAL WEATHER SERVICE NEW ORLEANS LA
1000 PM CDT FRI OCT 24 2014

NOTE: "FAIR" INDICATES FEW OR NO CLOUDS BELOW 12,000 FEET WITH NO
      SIGNIFICANT WEATHER AND/OR OBSTRUCTIONS TO VISIBILITY.
      SKY/WX - SKY CONDITION AND SIGNIFICANT WEATHER.
      TMP - AIR TEMPERATURE.     DP    - DEWPOINT TEMPERATURE.
      RH  - RELATIVE HUMIDITY.   PRES  - PRESSURE.
      HI  - HEAT INDEX.          WCI   - WIND CHILL INDEX.

*  THESE STATIONS ARE NOT NWS OR FAA STATIONS AND ARE NOT UNDER
   NWS QUALITY CONTROL.

LAZ038-040-048-061>063-065>067-069-250400-
SOUTHEAST LOUISIANA

CITY           SKY/WX    TMP DP  RH WIND       PRES   REMARKS
N.O. AUDUBON     N/A     65  52  64 MISG        N/A
N.O. INTL ARPT CLEAR     65  51  60 N3        30.10R
N.O. LAKEFRONT CLEAR     71  52  50 N13       30.10R
N.O. DOWNTOWN*   N/A     70  48  46 N5        30.10S
SLIDELL        CLEAR     54  50  86 CALM      30.09R
BATON ROUGE    CLEAR     55  51  86 CALM      30.11S
BOOTHVILLE     CLEAR     65  57  75 NW5       30.09R
BELLE CHASSE   CLEAR     54  49  83 CALM      30.09S
BOGALUSA*        N/A     53  47  81 CALM      30.11R
NEW ROADS*       N/A     54  51  89 CALM      30.12R
GONZALES*        N/A     55  55 100 CALM      30.11R
HAMMOND*       NOT AVBL
HOUMA*         CLEAR     55  51  87 CALM      30.10S
PORT FOURCHON* CLEAR     66  54  63 N6        30.13S

$$

MSZ070-080>082-250400-
SOUTHERN MISSISSIPPI

CITY           SKY/WX    TMP DP  RH WIND       PRES   REMARKS
MCCOMB         CLEAR     60  47  61 N8        30.12R
GULFPORT       CLEAR     58  51  78 CALM      30.08R
BILOXI         CLEAR     64  50  60 N3        30.08R
PASCAGOULA     CLEAR     52  48  86 CALM      30.08R

$$

COASTAL OBSERVATIONS
LAKE AND NEARSHORE STATIONS

STATION/POSITION TIME  TEMP    WIND        PRES    WAVE
                       AIR SEA DIR/SP/G            HT/PER
                 (UTC) (F)     (DEG/KT/KT) (MB)    (FT/S)
PASCAGOULA       0200   63     330/  6/  7 1017.9
WAVELAND YACHT   0200   68     360/  7/  8 1017.9
GRAND ISLE       0200   71 73  350/  7/  9 1019.4
SOUTHWEST PASS   0200   71 80              1019.0
NEW CANAL        0200   72 71   10/  9/ 10 1019.3
SHELL BEACH      0200   72 67  360/ 11/ 14 1018.6

OFFSHORE STATIONS

STATION/POSITION TIME  TEMP    WIND        PRES    WAVE
                       AIR SEA DIR/SP/G            HT/PER
                 (UTC) (F)     (DEG/KT/KT) (MB)    (FT/S)
64 S DAUPHIN ISL 0226   74 78  360/ 14/ 17 1018.5    2/ 8

$$




USA.gov is the U.S. government's official web portal to all federal, state and local government web resources and services.